When you browse on this site, cookies collect data to enhance your experience and personalize the content and advertising you see.
Visit our Privacy Policy to learn more. By continuing to use the site, you agree to this use of cookies and data.

Hourly Weather Carlisle

Today, 4 July, Saturday

Time Temperature Precipitation Wind Pressure Humidity
00:00 +15°C° 0.3 mm 2 mps 751 mmHg 98%
01:00 +15°C° 0.5 mm 2 mps 750 mmHg 98%
02:00 +15°C° 0.5 mm 1 mps 750 mmHg 98%
03:00 +15°C° 0.5 mm 1 mps 750 mmHg 98%
04:00 +15°C° 0.7 mm 1 mps 750 mmHg 98%
05:00 +14°C° 0.7 mm 1 mps 750 mmHg 98%
06:00 +14°C° 0.7 mm 1 mps 750 mmHg 98%
07:00 +15°C° 0 mm 1 mps 750 mmHg 97%
08:00 +15°C° 0 mm 1 mps 750 mmHg 97%
09:00 +15°C° 0 mm 2 mps 751 mmHg 97%
10:00 +15°C° 0.5 mm 2 mps 751 mmHg 97%
11:00 +15°C° 0.5 mm 2 mps 751 mmHg 97%
12:00 +15°C° 0.5 mm 2 mps 751 mmHg 98%
13:00 +14°C° 0.4 mm 3 mps 751 mmHg 98%
14:00 +14°C° 0.4 mm 3 mps 751 mmHg 98%
15:00 +16°C° 0.4 mm 3 mps 751 mmHg 98%
16:00 +16°C° 0.2 mm 3 mps 751 mmHg 98%
17:00 +16°C° 0.2 mm 3 mps 750 mmHg 97%
18:00 +16°C° 0.2 mm 3 mps 750 mmHg 97%
19:00 +15°C° 0.2 mm 4 mps 750 mmHg 97%
20:00 +15°C° 0.2 mm 4 mps 749 mmHg 97%
21:00 +15°C° 0.2 mm 5 mps 748 mmHg 97%
22:00 +15°C° 0.7 mm 6 mps 747 mmHg 97%
23:00 +15°C° 0.7 mm 7 mps 747 mmHg 97%

Tomorrow, 5 July, Sunday

Time Temperature Precipitation Wind Pressure Humidity
00:00 +15°C° 0.7 mm 8 mps 746 mmHg 97%
01:00 +15°C° 0.8 mm 9 mps 745 mmHg 95%
02:00 +14°C° 0.8 mm 10 mps 745 mmHg 94%
03:00 +14°C° 0.8 mm 11 mps 745 mmHg 93%
04:00 +13°C° 0.3 mm 11 mps 745 mmHg 92%
05:00 +13°C° 0.3 mm 10 mps 746 mmHg 92%
06:00 +12°C° 0.3 mm 9 mps 746 mmHg 91%
07:00 +12°C° 0.2 mm 9 mps 747 mmHg 88%
08:00 +12°C° 0.2 mm 10 mps 747 mmHg 84%
09:00 +12°C° 0.2 mm 10 mps 748 mmHg 81%
10:00 +12°C° 0.3 mm 10 mps 748 mmHg 80%
11:00 +12°C° 0.3 mm 11 mps 749 mmHg 79%
12:00 +13°C° 0.3 mm 11 mps 749 mmHg 79%
13:00 +13°C° 0.5 mm 11 mps 749 mmHg 80%
14:00 +13°C° 0.5 mm 10 mps 749 mmHg 81%
15:00 +12°C° 0.5 mm 10 mps 749 mmHg 81%
16:00 +12°C° 0.6 mm 9 mps 749 mmHg 84%
17:00 +12°C° 0.6 mm 8 mps 749 mmHg 86%
18:00 +11°C° 0.6 mm 8 mps 749 mmHg 88%
19:00 +11°C° 0.8 mm 7 mps 749 mmHg 90%
20:00 +10°C° 0.8 mm 6 mps 749 mmHg 92%
21:00 +10°C° 0.8 mm 6 mps 750 mmHg 93%
22:00 +9°C° 0.1 mm 6 mps 750 mmHg 94%
23:00 +9°C° 0.1 mm 6 mps 751 mmHg 94%

Day after tomorrow, 6 July, Monday

Time Temperature Precipitation Wind Pressure Humidity
00:00 +8°C° 0.1 mm 6 mps 751 mmHg 94%
01:00 +8°C° 0 mm 6 mps 751 mmHg 94%
02:00 +8°C° 0 mm 5 mps 752 mmHg 94%
03:00 +8°C° 0 mm 5 mps 752 mmHg 93%
04:00 +9°C° 0.4 mm 5 mps 753 mmHg 94%
05:00 +10°C° 0.4 mm 5 mps 753 mmHg 94%
06:00 +10°C° 0.4 mm 6 mps 754 mmHg 94%
07:00 +11°C° 0.1 mm 6 mps 755 mmHg 88%
08:00 +13°C° 0.1 mm 6 mps 756 mmHg 83%
09:00 +14°C° 0.1 mm 6 mps 757 mmHg 77%
10:00 +15°C° 0.4 mm 6 mps 758 mmHg 77%
11:00 +15°C° 0.4 mm 6 mps 758 mmHg 76%
12:00 +16°C° 0.4 mm 5 mps 759 mmHg 76%
13:00 +16°C° 0.2 mm 6 mps 760 mmHg 74%
14:00 +16°C° 0.2 mm 6 mps 761 mmHg 72%
15:00 +16°C° 0.2 mm 6 mps 761 mmHg 71%
16:00 +16°C° 0.1 mm 6 mps 762 mmHg 72%
17:00 +15°C° 0.1 mm 6 mps 762 mmHg 74%
18:00 +14°C° 0.1 mm 6 mps 763 mmHg 76%
19:00 +13°C° 0 mm 5 mps 763 mmHg 79%
20:00 +11°C° 0 mm 4 mps 763 mmHg 82%
21:00 +10°C° 0 mm 4 mps 763 mmHg 85%
22:00 +9°C° 0 mm 3 mps 763 mmHg 87%
23:00 +8°C° 0 mm 3 mps 764 mmHg 90%

7 July, Tuesday

Time Temperature Precipitation Wind Pressure Humidity
00:00 +7°C° 0 mm 3 mps 764 mmHg 92%
01:00 +7°C° 0 mm 3 mps 763 mmHg 93%
02:00 +8°C° 0 mm 3 mps 763 mmHg 94%
03:00 +8°C° 0 mm 3 mps 763 mmHg 95%
04:00 +9°C° 0.1 mm 3 mps 763 mmHg 93%
05:00 +10°C° 0.1 mm 3 mps 763 mmHg 92%
06:00 +10°C° 0.1 mm 4 mps 763 mmHg 91%
07:00 +11°C° 0.1 mm 4 mps 763 mmHg 87%
08:00 +12°C° 0.1 mm 5 mps 763 mmHg 84%
09:00 +13°C° 0.1 mm 5 mps 763 mmHg 80%
10:00 +13°C° 0.1 mm 5 mps 763 mmHg 78%
11:00 +14°C° 0.1 mm 5 mps 763 mmHg 77%
12:00 +14°C° 0.1 mm 5 mps 763 mmHg 75%
13:00 +14°C° 0.1 mm 6 mps 763 mmHg 75%
14:00 +14°C° 0.1 mm 6 mps 763 mmHg 75%
15:00 +14°C° 0.1 mm 6 mps 763 mmHg 75%
16:00 +13°C° 0.2 mm 5 mps 763 mmHg 80%
17:00 +12°C° 0.2 mm 5 mps 762 mmHg 86%
18:00 +12°C° 0.2 mm 4 mps 762 mmHg 91%
19:00 +11°C° 0.2 mm 4 mps 762 mmHg 93%
20:00 +11°C° 0.2 mm 4 mps 762 mmHg 94%
21:00 +10°C° 0.2 mm 3 mps 761 mmHg 96%
22:00 +11°C° 0.3 mm 4 mps 760 mmHg 96%
23:00 +11°C° 0.3 mm 4 mps 760 mmHg 96%

8 July, Wednesday

Time Temperature Precipitation Wind Pressure Humidity
00:00 +10°C° 0.3 mm 5 mps 759 mmHg 96%
01:00 +12°C° 1.4 mm 5 mps 758 mmHg 97%
02:00 +13°C° 1.4 mm 6 mps 757 mmHg 97%
03:00 +14°C° 1.4 mm 6 mps 756 mmHg 97%
04:00 +14°C° 1.9 mm 7 mps 756 mmHg 97%
05:00 +14°C° 1.9 mm 7 mps 755 mmHg 97%
06:00 +13°C° 1.9 mm 8 mps 755 mmHg 97%
07:00 +15°C° 1.2 mm 8 mps 755 mmHg 97%
08:00 +15°C° 1.2 mm 9 mps 754 mmHg 96%
09:00 +15°C° 1.2 mm 9 mps 754 mmHg 96%
10:00 +14°C° 0.1 mm 10 mps 754 mmHg 92%
11:00 +14°C° 0.1 mm 11 mps 754 mmHg 88%
12:00 +13°C° 0.1 mm 11 mps 754 mmHg 84%
13:00 +13°C° 0 mm 11 mps 754 mmHg 82%
14:00 +13°C° 0 mm 11 mps 754 mmHg 81%
15:00 +13°C° 0 mm 11 mps 754 mmHg 80%
16:00 +13°C° 0 mm 11 mps 754 mmHg 79%
17:00 +12°C° 0 mm 11 mps 755 mmHg 79%
18:00 +12°C° 0 mm 10 mps 755 mmHg 79%
19:00 +12°C° 0 mm 10 mps 756 mmHg 77%
20:00 +11°C° 0 mm 9 mps 756 mmHg 75%
21:00 +11°C° 0 mm 8 mps 757 mmHg 73%
22:00 +10°C° 0 mm 7 mps 758 mmHg 76%
23:00 +9°C° 0 mm 6 mps 758 mmHg 79%

9 July, Thursday

Time Temperature Precipitation Wind Pressure Humidity
00:00 +9°C° 0 mm 5 mps 759 mmHg 83%
01:00 +8°C° 0 mm 4 mps 759 mmHg 86%
02:00 +8°C° 0 mm 3 mps 760 mmHg 89%
03:00 +7°C° 0 mm 3 mps 760 mmHg 93%
04:00 +8°C° 0 mm 2 mps 761 mmHg 91%
05:00 +9°C° 0 mm 2 mps 761 mmHg 89%
06:00 +9°C° 0 mm 2 mps 761 mmHg 87%
07:00 +12°C° 0 mm 2 mps 762 mmHg 81%
08:00 +13°C° 0 mm 2 mps 762 mmHg 76%
09:00 +13°C° 0 mm 3 mps 762 mmHg 70%
10:00 +14°C° 0 mm 3 mps 762 mmHg 69%
11:00 +14°C° 0 mm 3 mps 763 mmHg 68%
12:00 +15°C° 0 mm 4 mps 763 mmHg 67%
13:00 +15°C° 0 mm 4 mps 763 mmHg 69%
14:00 +15°C° 0 mm 4 mps 762 mmHg 71%
15:00 +15°C° 0 mm 4 mps 762 mmHg 72%
16:00 +15°C° 0 mm 4 mps 762 mmHg 74%
17:00 +14°C° 0 mm 4 mps 762 mmHg 76%
18:00 +14°C° 0 mm 3 mps 762 mmHg 78%
19:00 +12°C° 0 mm 3 mps 762 mmHg 82%
20:00 +12°C° 0 mm 2 mps 762 mmHg 85%
21:00 +10°C° 0 mm 2 mps 762 mmHg 89%
22:00 +9°C° 0 mm 2 mps 762 mmHg 89%
23:00 +9°C° 0 mm 1 mps 762 mmHg 90%
Show more